Date String (YYYY-MM-DD hh:mm:ss) UTC,Instrument flags,Ambient pressure (hPa),Sample flow (lpm),Bypass flow (lpm),Sample temperature (°C),Ambient temperature (°C),ASC tube jacket temperature (°C),LED temperature (°C),Box temperature (°C),Sample RH (%),Span deviation,Mass concentration (μg/m³),Mass concentration (μg/m³),Mass concentration (μg/m³)
DateTimeUTC,F1_M11,P_M11,Q1_M11,Q2_M11,T1_M11,T2_M11,T3_M11,T4_M11,T5_M11,U1_M11,ZSPAN_M11,X0_M11,X2_M11,X1_M11
2022-12-04 11:00:00,,0829.1,4.99,0.00,21.9,20.6,00.0,30.9,23.7,14.3,0000.0,0009.75,0004.37,0003.44
2022-12-04 11:01:00,,0828.8,5.00,0.00,21.9,20.6,00.0,30.9,23.6,14.4,0000.0,0009.89,0004.35,0003.41
2022-12-04 11:02:00,,0829.3,5.01,0.00,22.0,21.1,00.0,30.8,23.8,14.4,0000.0,0010.59,0004.33,0003.39
2022-12-04 11:03:00,,0829.1,5.00,0.00,22.1,21.9,00.0,30.8,24.1,14.3,0000.0,0010.93,0004.33,0003.37
2022-12-04 11:04:00,,0829.0,4.99,0.00,22.1,22.0,00.0,30.9,24.2,14.3,0000.0,0011.13,0004.33,0003.36
2022-12-04 11:05:00,,0828.8,5.00,0.00,22.2,21.8,00.0,30.9,24.2,14.1,0000.0,0011.14,0004.31,0003.35
2022-12-04 11:06:00,,0828.7,5.00,0.00,22.2,21.6,00.0,31.0,24.1,14.1,0000.0,0011.00,0004.29,0003.33
2022-12-04 11:07:00,,0828.9,5.00,0.00,22.2,21.4,00.0,31.0,24.1,14.0,0000.0,0010.70,0004.21,0003.30
2022-12-04 11:08:00,,0828.9,5.01,0.00,22.2,21.3,00.0,31.0,24.1,14.0,0000.0,0010.18,0004.09,0003.27
2022-12-04 11:09:00,,0828.7,5.01,0.00,22.2,21.2,00.0,31.0,24.1,14.1,0000.0,0010.55,0004.07,0003.26
2022-12-04 11:10:00,,0828.7,5.00,0.00,22.2,21.1,00.0,31.0,24.1,14.0,0000.0,0010.34,0004.04,0003.24
2022-12-04 11:11:00,,0828.7,5.00,0.00,22.2,21.0,00.0,31.0,24.0,13.7,0000.0,0010.35,0004.04,0003.22
2022-12-04 11:12:00,,0828.7,5.00,0.00,22.2,21.0,00.0,31.0,24.0,13.8,0000.0,0010.30,0004.04,0003.22
2022-12-04 11:13:00,,0828.7,5.00,0.00,22.2,21.0,00.0,31.0,24.0,13.7,0000.0,0009.66,0004.04,0003.21
2022-12-04 11:14:00,,0828.7,5.00,0.00,22.2,20.9,00.0,31.0,24.0,13.7,0000.0,0009.20,0004.02,0003.18
2022-12-04 11:15:00,,0828.7,5.00,0.00,22.2,20.9,00.0,31.0,24.0,13.7,0000.0,0009.06,0003.97,0003.16
2022-12-04 11:16:00,,0828.7,4.99,0.00,22.1,20.9,00.0,31.0,24.0,13.7,0000.0,0009.16,0003.92,0003.13
2022-12-04 11:17:00,,0829.1,4.99,0.00,22.1,20.9,00.0,31.0,23.9,13.7,0000.0,0009.68,0003.86,0003.11
2022-12-04 11:18:00,,0829.2,5.00,0.00,22.1,20.9,00.0,31.0,24.0,13.7,0000.0,0009.74,0003.84,0003.10
2022-12-04 11:19:00,,0829.0,5.00,0.00,22.1,20.9,00.0,31.0,24.0,13.7,0000.0,0009.81,0003.85,0003.08
2022-12-04 11:20:00,,0829.1,5.00,0.00,22.1,20.8,00.0,31.1,24.0,13.9,0000.0,0009.87,0003.82,0003.04
2022-12-04 11:21:00,,0828.9,5.00,0.00,22.1,20.7,00.0,31.1,23.9,14.2,0000.0,0009.79,0003.78,0003.03
2022-12-04 11:22:00,,0828.6,5.00,0.00,22.1,20.7,00.0,31.1,23.9,14.3,0000.0,0009.98,0003.76,0003.03
2022-12-04 11:23:00,,0828.9,5.00,0.00,22.1,20.8,00.0,31.0,23.9,14.3,0000.0,0010.31,0003.76,0003.02
2022-12-04 11:24:00,,0828.8,5.00,0.00,22.1,20.8,00.0,31.0,23.9,14.4,0000.0,0010.45,0003.73,0003.01
2022-12-04 11:25:00,,0828.8,5.00,0.00,22.1,20.8,00.0,31.0,23.9,14.7,0000.0,0010.69,0003.74,0002.98
2022-12-04 11:26:00,,0829.1,5.00,0.00,22.1,20.8,00.0,31.0,23.9,14.8,0000.0,0010.44,0003.70,0002.94
2022-12-04 11:27:00,,0828.7,5.00,0.00,22.1,20.8,00.0,31.0,23.9,14.9,0000.0,0010.39,0003.67,0002.91
2022-12-04 11:28:00,,0828.6,5.00,0.00,22.1,20.8,00.0,31.0,23.8,14.9,0000.0,0009.68,0003.65,0002.87
2022-12-04 11:29:00,,0828.7,5.00,0.00,22.1,20.8,00.0,31.0,23.9,14.9,0000.0,0009.48,0003.59,0002.81
2022-12-04 11:30:00,,0828.8,5.00,0.00,22.0,20.7,00.0,31.0,23.9,14.7,0000.0,0009.27,0003.57,0002.76
2022-12-04 11:31:00,,0828.8,5.00,0.00,22.0,20.7,00.0,31.0,23.8,14.6,0000.0,0009.04,0003.51,0002.73
2022-12-04 11:32:00,,0828.7,5.00,0.00,22.0,20.7,00.0,31.0,23.7,14.6,0000.0,0008.79,0003.50,0002.68
2022-12-04 11:33:00,,0828.5,5.00,0.00,22.0,20.7,00.0,31.0,23.8,14.5,0000.0,0008.53,0003.42,0002.62
2022-12-04 11:34:00,,0828.5,5.00,0.00,22.0,20.7,00.0,31.0,23.8,14.4,0000.0,0008.12,0003.37,0002.58
2022-12-04 11:35:00,,0828.5,5.00,0.00,22.0,20.7,00.0,31.0,23.7,14.4,0000.0,0007.61,0003.34,0002.55
2022-12-04 11:36:00,,0828.5,5.00,0.00,22.0,20.7,00.0,31.0,23.7,14.7,0000.0,0007.09,0003.29,0002.52
2022-12-04 11:37:00,,0828.4,5.00,0.00,22.0,20.6,00.0,31.0,23.7,14.7,0000.0,0006.62,0003.26,0002.52
2022-12-04 11:38:00,,0828.5,5.00,0.00,22.0,20.6,00.0,31.0,23.7,14.7,0000.0,0006.55,0003.26,0002.52
2022-12-04 11:39:00,,0828.4,5.00,0.00,22.0,20.6,00.0,31.0,23.7,14.8,0000.0,0006.68,0003.29,0002.52
2022-12-04 11:40:00,,0828.4,5.00,0.00,22.0,20.6,00.0,30.9,23.6,15.1,0000.0,0006.65,0003.29,0002.52
2022-12-04 11:41:00,,0828.3,5.00,0.00,21.9,20.6,00.0,30.9,23.5,14.8,0000.0,0006.92,0003.28,0002.54
2022-12-04 11:42:00,,0828.3,5.00,0.00,21.9,20.5,00.0,30.9,23.6,14.5,0000.0,0006.60,0003.29,0002.54
2022-12-04 11:43:00,,0828.3,5.00,0.00,21.9,20.5,00.0,30.9,23.5,14.4,0000.0,0006.31,0003.31,0002.55
2022-12-04 11:44:00,,0828.3,5.00,0.00,21.9,20.5,00.0,30.9,23.6,14.3,0000.0,0006.43,0003.36,0002.56
2022-12-04 11:45:00,,0828.3,5.01,0.00,21.9,20.9,00.0,30.9,23.8,14.2,0000.0,0006.43,0003.40,0002.58
2022-12-04 11:46:00,,0828.3,5.00,0.00,22.0,21.8,00.0,30.8,24.0,14.1,0000.0,0006.59,0003.41,0002.58
2022-12-04 11:47:00,,0828.3,4.98,0.00,22.1,22.1,00.0,30.9,24.2,14.0,0000.0,0006.80,0003.41,0002.60
2022-12-04 11:48:00,,0828.3,5.00,0.00,22.2,21.9,00.0,31.0,24.2,13.9,0000.0,0007.62,0003.43,0002.62
2022-12-04 11:49:00,,0828.3,5.02,0.00,22.2,21.6,00.0,31.0,24.2,13.9,0000.0,0007.89,0003.42,0002.64
2022-12-04 11:50:00,,0828.3,4.99,0.00,22.2,21.4,00.0,31.0,24.1,13.9,0000.0,0007.88,0003.42,0002.65
2022-12-04 11:51:00,,0828.3,5.00,0.00,22.2,21.3,00.0,31.0,24.1,13.9,0000.0,0008.65,0003.45,0002.70
2022-12-04 11:52:00,,0828.3,4.99,0.00,22.2,21.2,00.0,31.1,24.0,13.9,0000.0,0008.87,0003.50,0002.72
2022-12-04 11:53:00,,0828.3,5.00,0.00,22.2,21.1,00.0,31.1,24.0,14.0,0000.0,0008.85,0003.50,0002.74
2022-12-04 11:54:00,,0828.3,5.01,0.00,22.2,21.0,00.0,31.1,24.0,14.3,0000.0,0008.87,0003.49,0002.73
2022-12-04 11:55:00,,0828.3,5.01,0.00,22.2,20.9,00.0,31.1,24.0,14.5,0000.0,0008.91,0003.49,0002.72
2022-12-04 11:56:00,,0828.3,5.00,0.00,22.1,20.9,00.0,31.1,24.0,14.5,0000.0,0008.89,0003.45,0002.70
2022-12-04 11:57:00,,0828.3,5.00,0.00,22.2,20.9,00.0,31.1,24.0,14.4,0000.0,0008.94,0003.44,0002.68
2022-12-04 11:58:00,,0828.3,5.00,0.00,22.1,20.9,00.0,31.1,24.0,14.2,0000.0,0008.87,0003.43,0002.67
2022-12-04 11:59:00,,0828.3,4.99,0.00,22.1,20.9,00.0,31.1,24.0,14.2,0000.0,0008.73,0003.46,0002.66
